[[{"header":{"parameterUnit":"m.s-1","parameterCategory":1,"la1":30.2991,"la2":30.254,"lo1":-89.0895,"lo2":-89.0444,"dy":0.0017,"dx":0.0017,"nx":28,"ny":28,"refTime":"2025-04-07T03:00:00:Z","depth":0,"parameterNumber":2,"parameterNumberName":"U-component_of_WINDS"},"data":[0,0,0,0,0,0,0,0,0,0,0,0,0,0,0,0,0,0,0,0,0,0,0,0,0,0,0,0,0,0,0,0,0,0,0,0,0,0,0,0,0,0,0,0,0,0,0,0,0,0,0,0,0,0,0,0,0,0,2.0105,2.0106,0,2.0169,2.0169,2.017,2.0163,2.0162,2.0161,2.0161,2.0226,2.0229,2.0231,0,0,0,0,0,0,0,0,0,0,0,0,0,1.998,1.9982,2.0105,2.0106,2.0107,2.0169,2.0169,2.017,2.0164,2.0162,2.0161,2.016,2.0225,2.0228,2.0232,0,0,0,0,0,0,0,0,0,0,0,0,0,2.0038,1.9983,2.0105,2.0111,2.0112,2.0168,2.0169,2.017,2.0164,2.0162,2.0161,2.016,2.0224,2.0228,2.0232,2.0287,0,0,2.0244,2.0246,0,0,0,0,0,0,0,0,2.0035,2.0043,2.0109,2.0111,2.0112,2.0157,2.0149,2.021,2.0164,2.0144,2.0161,2.0159,2.0204,2.021,2.0225,2.029,2.0293,2.0245,2.0247,2.0249,2.025,0,0,0,0,0,0,0,2.0031,2.004,2.013,2.011,2.0112,2.0111,2.0118,2.0161,2.0182,2.0146,2.0146,2.0153,2.0205,2.0221,2.0227,2.0294,2.0245,2.0248,2.0251,2.0252,2.0409,2.0411,0,0,0,0,0,0,2.0025,2.0037,2.0128,2.0132,2.0069,2.0114,2.0122,2.0144,2.0181,2.0186,2.0154,2.0153,2.0215,2.0222,2.0229,2.0297,2.0249,2.0253,2.0255,2.0407,2.0409,2.0411,0,0,0,0,0,0,2.0022,2.0033,2.0126,2.0084,2.0096,2.0118,2.0143,2.0146,2.0162,2.0188,2.0192,2.0167,2.0214,2.0223,2.0273,2.0299,2.0254,2.0258,2.0405,2.0408,2.041,2.0432,0,0,0,0,0,0,2.0019,2.0032,2.0053,2.0085,2.0098,2.0168,2.0144,2.0148,2.0169,2.0167,2.0201,2.0205,2.0214,2.0267,2.0277,2.0304,2.0261,2.0403,2.0407,2.041,2.0429,2.0435,2.044,0,0,0,0,0,2.0014,2.0056,2.0054,2.0065,2.0124,2.0169,2.0177,2.0186,2.0171,2.0192,2.0209,2.0204,2.0295,2.0272,2.0283,2.0311,2.0401,2.0406,2.0409,2.0427,2.0434,2.044,0,0,0,0,0,0,2.0026,2.006,2.0058,2.0111,2.0138,2.0168,2.0195,2.0193,2.0225,2.0222,2.0232,2.024,2.029,2.0306,2.028,2.0368,2.0346,2.0352,2.0355,2.0363,2.0368,2.0363,2.0265,0,0,0,0,0,2.0035,2.0068,2.0097,2.0141,2.0154,2.0173,2.0193,2.0198,2.0225,2.0236,2.0257,2.0284,2.0319,2.0342,2.0375,2.0432,2.044,2.0457,2.0462,2.0467,2.0472,2.0505,2.0513,2.0424,2.0424,2.0424,0,0,2.0053,2.0076,2.0096,2.0144,2.0165,2.02,2.0182,2.0219,2.0246,2.0242,2.029,2.0307,2.0338,2.0392,2.0417,2.0407,2.0499,2.0472,2.0475,2.0478,2.051,2.0518,2.0526,2.0427,2.0427,2.0426,0,0,2.0104,2.0125,2.0164,2.0186,2.0219,2.0231,2.0241,2.0272,2.0283,2.0332,2.033,2.0363,2.0422,2.0445,2.0464,2.0527,2.0524,2.0538,2.0567,2.0599,2.0606,2.0612,2.0636,2.0644,2.0543,2.0544,2.0544,0,2.0123,2.0176,2.0185,2.0224,2.0245,2.0244,2.0285,2.0306,2.0347,2.0363,2.0351,2.0427,2.0448,2.0508,2.0524,2.0539,2.0552,2.0534,2.0604,2.0611,2.0617,2.0639,2.0648,2.0545,2.0545,2.0545,2.0545,0,2.0198,2.0235,2.0263,2.0304,2.0329,2.0368,2.0384,2.0409,2.0412,2.0426,2.0477,2.0503,2.0542,2.0557,2.056,2.0618,2.0611,2.0602,2.058,2.0626,2.0648,2.0657,2.0547,2.0547,2.0546,2.0546,0,0,2.0256,2.0304,2.0314,2.0333,2.037,2.0399,2.0439,2.0478,2.0499,2.0529,2.0564,2.0615,2.0607,2.063,2.0636,2.0664,2.0714,2.0652,2.0652,2.0663,2.0781,2.0788,2.0798,2.0713,2.0714,2.0716,2.0779,0,2.0312,2.0383,2.0394,2.0457,2.0492,2.0493,2.0528,2.0555,2.057,2.0602,2.0619,2.0656,2.0642,2.0656,2.0684,2.0702,2.0738,2.0698,2.0746,2.0748,2.0738,2.0809,2.0816,2.0875,2.0787,2.0789,2.079,0,2.0386,2.0418,2.0485,2.0519,2.0534,2.0565,2.0603,2.0634,2.0665,2.0674,2.07,2.0704,2.0747,2.0724,2.0785,2.0757,2.0778,2.079,2.0793,2.0798,2.0771,2.0817,2.0894,2.0903,2.0803,2.0802,2.0801,0,2.0423,2.0483,2.0531,2.0548,2.0588,2.0611,2.0629,2.0659,2.0682,2.0715,2.0731,2.0768,2.0789,2.0819,2.0833,2.0815,2.0894,2.0871,2.0903,2.0903,2.0919,2.0918,2.1001,2.0932,2.0932,2.0932,2.0932,0,2.0484,2.0525,2.0549,2.0578,2.0625,2.0638,2.0684,2.0701,2.0728,2.0762,2.0765,2.0797,2.0814,2.0849,2.086,2.091,2.0919,2.0928,2.0931,2.0928,2.0927,2.0941,2.0938,2.0934,2.0934,2.0933,2.0933,0,2.0533,2.0551,2.0603,2.0638,2.0648,2.0681,2.0711,2.074,2.0755,2.0799,2.0809,2.0834,2.0875,2.0892,2.0943,2.0951,2.1008,2.1007,2.0997,2.0998,2.1029,2.1026,2.1125,2.1139,2.106,2.1061,2.1061,0,2.0571,2.0603,2.0641,2.0664,2.0683,2.072,2.0744,2.0759,2.0784,2.0823,2.0848,2.089,2.0924,2.099,2.1013,2.1052,2.1053,2.1085,2.1059,2.1056,2.1054,2.1053,2.1056,2.1089,2.109,2.1091,2.1091,0,2.0637,2.0644,2.0679,2.0717,2.0746,2.0777,2.0807,2.0826,2.0846,2.0874,2.0917,2.0943,2.0996,2.1037,2.1078,2.1098,2.1099,2.11,2.1109,2.1107,2.11,2.1105,2.1011,2.1097,2.1097,2.1096,2.1096,2.1096,2.0682,2.0711,2.0743,2.0782,2.0806,2.0835,2.0865,2.0885,2.092,2.0964,2.0971,2.1017,2.105,2.1105,2.1126,2.1163,2.1155,2.1169,2.1172,2.1176,2.1178,2.1094,2.1171,2.1171,2.1171,2.117,2.117,0,2.0748,2.0769,2.0805,2.0848,2.0879,2.0877,2.0911,2.0938,2.0978,2.1008,2.1042,2.1092,2.1133,2.116,2.1202,2.1226,2.1228,2.1237,2.1235,2.124,2.1182,2.117,2.1235,2.1235,2.1235,2.1235,2.1235,2.1235,2.0786,2.0836,2.0847,2.091,2.0931,2.0976,2.0995,2.1023,2.1047,2.1103,2.1137,2.1154,2.1184,2.1228,2.1267,2.1274,2.1289,2.1299,2.1305,2.1251,2.1244,2.1238,2.1226,2.1302,2.1302,2.136,2.1361,2.1361]},{"header":{"parameterUnit":"m.s-1","parameterCategory":1,"la1":30.2991,"la2":30.254,"lo1":-89.0895,"lo2":-89.0444,"dy":0.0017,"dx":0.0017,"nx":28,"ny":28,"refTime":"2025-04-07T03:00:00:Z","depth":0,"parameterNumber":3,"parameterNumberName":"V-component_of_WINDS"},"data":[0,0,0,0,0,0,0,0,0,0,0,0,0,0,0,0,0,0,0,0,0,0,0,0,0,0,0,0,0,0,0,0,0,0,0,0,0,0,0,0,0,0,0,0,0,0,0,0,0,0,0,0,0,0,0,0,0,0,-6.1242,-6.1244,0,-6.1426,-6.1428,-6.143,-6.1405,-6.1402,-6.1399,-6.1396,-6.1579,-6.1586,-6.1594,0,0,0,0,0,0,0,0,0,0,0,0,0,-6.0865,-6.0872,-6.1242,-6.1244,-6.1246,-6.1425,-6.1428,-6.143,-6.1405,-6.1401,-6.1398,-6.1394,-6.1576,-6.1585,-6.1595,0,0,0,0,0,0,0,0,0,0,0,0,0,-6.1037,-6.0875,-6.1241,-6.1255,-6.1259,-6.1425,-6.1428,-6.1431,-6.1406,-6.1401,-6.1397,-6.1393,-6.1573,-6.1584,-6.1596,-6.1758,0,0,-6.1631,-6.1636,0,0,0,0,0,0,0,0,-6.1027,-6.1051,-6.1251,-6.1255,-6.1259,-6.1388,-6.1362,-6.154,-6.1407,-6.135,-6.1396,-6.139,-6.1519,-6.1534,-6.1579,-6.1767,-6.1775,-6.1632,-6.1639,-6.1644,-6.1647,0,0,0,0,0,0,0,-6.1015,-6.1043,-6.1314,-6.1254,-6.1259,-6.1251,-6.1271,-6.1396,-6.1457,-6.1354,-6.1353,-6.1375,-6.152,-6.1568,-6.1583,-6.1777,-6.1632,-6.1642,-6.1649,-6.1654,-6.2109,-6.2114,0,0,0,0,0,0,-6.1,-6.1033,-6.1308,-6.132,-6.1129,-6.1262,-6.1284,-6.1351,-6.1456,-6.1468,-6.1379,-6.1374,-6.155,-6.1569,-6.1589,-6.1787,-6.1644,-6.1655,-6.1662,-6.2104,-6.211,-6.2116,0,0,0,0,0,0,-6.0992,-6.1025,-6.1301,-6.1176,-6.1211,-6.1273,-6.1349,-6.1357,-6.1405,-6.1475,-6.1485,-6.1417,-6.1547,-6.1573,-6.1717,-6.1793,-6.166,-6.1671,-6.2098,-6.2106,-6.2113,-6.2184,0,0,0,0,0,0,-6.0982,-6.1022,-6.1085,-6.1178,-6.1218,-6.1427,-6.1354,-6.1364,-6.1425,-6.142,-6.1513,-6.1524,-6.1546,-6.17,-6.1729,-6.1807,-6.168,-6.2091,-6.2101,-6.2111,-6.2175,-6.2193,-6.2208,0,0,0,0,0,-6.0968,-6.1097,-6.1089,-6.1122,-6.1298,-6.1432,-6.1454,-6.1478,-6.1431,-6.1495,-6.154,-6.1521,-6.178,-6.1715,-6.1747,-6.1829,-6.2087,-6.2099,-6.211,-6.2167,-6.2189,-6.2208,0,0,0,0,0,0,-6.1009,-6.1109,-6.1101,-6.1264,-6.134,-6.1427,-6.1508,-6.15,-6.159,-6.1581,-6.1605,-6.1626,-6.1772,-6.1815,-6.1741,-6.1993,-6.1927,-6.1945,-6.196,-6.1981,-6.1997,-6.1984,-6.1689,0,0,0,0,0,-6.1038,-6.1139,-6.122,-6.1355,-6.1394,-6.1445,-6.1504,-6.1516,-6.1595,-6.1626,-6.1682,-6.1758,-6.1857,-6.1921,-6.2016,-6.2181,-6.2201,-6.2254,-6.227,-6.2284,-6.2299,-6.2391,-6.2415,-6.2154,-6.2154,-6.2154,0,0,-6.1096,-6.1163,-6.1226,-6.1366,-6.1426,-6.153,-6.1472,-6.1584,-6.1661,-6.1643,-6.1783,-6.1827,-6.1913,-6.2069,-6.2141,-6.2109,-6.2376,-6.2299,-6.2309,-6.2317,-6.2405,-6.243,-6.2452,-6.2162,-6.216,-6.2159,0,0,-6.1257,-6.1318,-6.1438,-6.15,-6.1593,-6.1626,-6.1655,-6.1745,-6.1774,-6.1916,-6.1905,-6.1996,-6.2165,-6.2228,-6.2282,-6.2468,-6.2454,-6.2498,-6.2586,-6.2675,-6.2695,-6.2714,-6.2781,-6.2805,-6.2514,-6.2514,-6.2514,0,-6.1318,-6.1475,-6.15,-6.1615,-6.1677,-6.1667,-6.1789,-6.1848,-6.1966,-6.2009,-6.1972,-6.2186,-6.2243,-6.2414,-6.246,-6.2504,-6.2538,-6.2488,-6.2691,-6.2709,-6.2727,-6.2791,-6.2816,-6.2519,-6.2518,-6.2518,-6.2517,0,-6.1546,-6.1656,-6.1741,-6.1859,-6.193,-6.2047,-6.2089,-6.2158,-6.2165,-6.2201,-6.2346,-6.2415,-6.2524,-6.2565,-6.2571,-6.2738,-6.2716,-6.2685,-6.2619,-6.2756,-6.2817,-6.2842,-6.2526,-6.2524,-6.2522,-6.2521,0,0,-6.1736,-6.1868,-6.1899,-6.1953,-6.2055,-6.214,-6.2257,-6.2366,-6.2425,-6.2507,-6.2605,-6.275,-6.2723,-6.2784,-6.2797,-6.2875,-6.302,-6.2835,-6.2837,-6.2867,-6.3208,-6.3231,-6.3259,-6.3011,-6.3016,-6.302,-6.3201,0,-6.1907,-6.2116,-6.2143,-6.2328,-6.2429,-6.2423,-6.2525,-6.2598,-6.2636,-6.2727,-6.2767,-6.287,-6.2826,-6.2863,-6.294,-6.2986,-6.3088,-6.2973,-6.3102,-6.3107,-6.3081,-6.3291,-6.3315,-6.3483,-6.3225,-6.3229,-6.3232,0,-6.2134,-6.2226,-6.2422,-6.2512,-6.2556,-6.2647,-6.275,-6.2837,-6.292,-6.2942,-6.3012,-6.3016,-6.3136,-6.3066,-6.3231,-6.3152,-6.3207,-6.3237,-6.3244,-6.3257,-6.3178,-6.331,-6.3537,-6.3563,-6.327,-6.3267,-6.3264,0,-6.2255,-6.2426,-6.2566,-6.2612,-6.2721,-6.2785,-6.2833,-6.2912,-6.2977,-6.3066,-6.3108,-6.3209,-6.3264,-6.3342,-6.3373,-6.3319,-6.3538,-6.3469,-6.3559,-6.3558,-6.3605,-6.3601,-6.3844,-6.3639,-6.3639,-6.3638,-6.3638,0,-6.2443,-6.2563,-6.2622,-6.2708,-6.2842,-6.2871,-6.3003,-6.3048,-6.3119,-6.3213,-6.3213,-6.33,-6.3336,-6.3429,-6.3454,-6.3588,-6.3612,-6.3633,-6.3638,-6.3634,-6.3631,-6.3669,-6.3659,-6.3645,-6.3644,-6.3642,-6.3641,0,-6.26,-6.2644,-6.2796,-6.2888,-6.2913,-6.3008,-6.3086,-6.3169,-6.3206,-6.3325,-6.3355,-6.3413,-6.3523,-6.3562,-6.3694,-6.3711,-6.3867,-6.3862,-6.384,-6.3841,-6.3928,-6.392,-6.4205,-6.4244,-6.4012,-6.4015,-6.4016,0,-6.2717,-6.281,-6.2912,-6.2976,-6.3027,-6.313,-6.3196,-6.3229,-6.3297,-6.3401,-6.3471,-6.3581,-6.3671,-6.3847,-6.39,-6.4002,-6.3999,-6.4092,-6.4014,-6.4007,-6.4002,-6.3996,-6.4006,-6.4107,-6.4109,-6.4111,-6.4112,0,-6.2921,-6.2939,-6.3035,-6.3141,-6.3221,-6.3304,-6.3385,-6.3437,-6.3481,-6.3559,-6.3673,-6.3742,-6.388,-6.3989,-6.4094,-6.4141,-6.4135,-6.4137,-6.4163,-6.4159,-6.4143,-6.4154,-6.388,-6.413,-6.4128,-6.4127,-6.4126,-6.4125,-6.3062,-6.3145,-6.3231,-6.3338,-6.3403,-6.348,-6.3563,-6.3612,-6.3708,-6.3823,-6.3836,-6.3959,-6.404,-6.4181,-6.4234,-6.433,-6.4304,-6.4341,-6.4351,-6.436,-6.4367,-6.4128,-6.4349,-6.4348,-6.4348,-6.4347,-6.4347,0,-6.3267,-6.3322,-6.3421,-6.3536,-6.3621,-6.3609,-6.3699,-6.377,-6.3879,-6.3957,-6.4046,-6.4177,-6.4284,-6.4346,-6.4453,-6.4517,-6.4517,-6.4544,-6.454,-6.4551,-6.4384,-6.4351,-6.4543,-6.4543,-6.4543,-6.4543,-6.4543,-6.4543,-6.3383,-6.3523,-6.3551,-6.3723,-6.3777,-6.3899,-6.3951,-6.4022,-6.4084,-6.4232,-6.4321,-6.4362,-6.4434,-6.4546,-6.4643,-6.4658,-6.4697,-6.4727,-6.474,-6.4583,-6.4563,-6.4543,-6.4513,-6.4736,-6.4736,-6.49,-6.4902,-6.4903]}]]